Location: Colonia Mina de C?rbuni
(46.1667°N, 22.7167°E)
Time: 21:21:03
(UTC+00:00)

BlueWalker 3 - Pass Details

Date: 03 March 2024
Orbit: 485 x 495 km, 53.2° (Epoch: 22 April)

Event Time Altitude Azimuth Distance (km) Brightness Sun altitude
Rises 17:01:34 0° 301° (WNW) 2,566 6.6 -8.2°
Reaches altitude 10° 17:03:47 10° 305° (NW) 1,680 5.5 -8.6°
Maximum altitude 17:07:32 62° 27° (NNE) 553 2.0 -9.2°
Enters shadow 17:10:50 13° 107° (ESE) 1,497 3.7 -9.8°
